User: anonymous   Login
Location: Zagreb
(45.8000°N, 16.0000°E)
Time: 15:01:48
(UTC+02:00)
Language:

deb Explorer IX - Orbit

View from above orbital plane
View from above orbital plane
View from above satellite
View from above satellite

Ground track
Ground track

The orbit data is extracted from the following two-line orbital elements,

1 00085U 61004C   24200.35303980  .00029202  00000-0  37495-2 0  9998
2 00085  38.7370 197.5688 0260431 177.0655 183.1696 14.59558061144944
Epoch (UTC): 18 July 2024 08:28:22
Eccentricity: 0.0260431
inclination: 38.7370°
perigee height: 510 km
apogee height: 879 km
right ascension of ascending node: 197.5688°
argument of perigee: 177.0655°
revolutions per day: 14.59558061
mean anomaly at epoch: 183.1696°
orbit number at epoch: 14494

The dashed part of the orbit path shows where the satellite is in the earth's shadow,  

DLR